EWG96U EDDL-LIMC

Flight info

Callsign EWG96U
Flight time N/A
Altitude 33000
Route KUMIK7T KUMIK L603 BOMBI N850 RINEX DCT KRH DCT NATOR DCT TRA N850 DEGAD Z424 RIXUV
Aircraft A319/M-SDE2E3FGIJ1RWXY/EB1

Departure

Time 2026-05-01 12:05
Airport Düsseldorf Airport (EDDL)

Arrival

Time N/A
Airport Milan Malpensa International Airport (LIMC)
Time Latitude Longitude Altitude Speed Heading
2026-05-01 11:44 51.27906 6.76254 131 ft 0 kts 45°
2026-05-01 11:54 51.27897 6.76239 125 ft 4 kts 44°
2026-05-01 11:54 51.27877 6.76210 127 ft 4 kts 39°
2026-05-01 11:55 51.27855 6.76186 127 ft 4 kts 13°
2026-05-01 11:55 51.27840 6.76186 125 ft 1 kts 272°
2026-05-01 11:55 51.27840 6.76194 125 ft 0 kts 272°
2026-05-01 11:58 51.27846 6.76095 129 ft 10 kts 287°
2026-05-01 11:59 51.27909 6.76047 130 ft 12 kts
2026-05-01 11:59 51.28004 6.76049 130 ft 15 kts 359°
2026-05-01 11:59 51.28075 6.76047 130 ft 7 kts 354°
2026-05-01 12:00 51.28185 6.76140 129 ft 13 kts 52°
2026-05-01 12:00 51.28246 6.76271 128 ft 17 kts 53°
2026-05-01 12:00 51.28416 6.76626 126 ft 23 kts 52°
2026-05-01 12:01 51.28511 6.76827 128 ft 22 kts 53°
2026-05-01 12:01 51.28608 6.77032 130 ft 24 kts 51°
2026-05-01 12:01 51.28709 6.77235 130 ft 24 kts 53°
2026-05-01 12:01 51.28816 6.77464 129 ft 27 kts 53°
2026-05-01 12:02 51.28931 6.77701 126 ft 23 kts 52°
2026-05-01 12:02 51.29032 6.77918 131 ft 26 kts 53°
2026-05-01 12:02 51.29137 6.78138 135 ft 19 kts 52°
2026-05-01 12:02 51.29200 6.78258 139 ft 14 kts 43°
2026-05-01 12:03 51.29276 6.78348 143 ft 14 kts 35°
2026-05-01 12:03 51.29352 6.78437 147 ft 14 kts 36°
2026-05-01 12:03 51.29409 6.78471 149 ft 10 kts
2026-05-01 12:03 51.29483 6.78454 150 ft 10 kts 339°
2026-05-01 12:04 51.29467 6.78363 149 ft 8 kts 225°
2026-05-01 12:04 51.29433 6.78286 147 ft 11 kts 234°
2026-05-01 12:04 51.29295 6.78001 142 ft 66 kts 231°
2026-05-01 12:04 51.28886 6.77141 131 ft 129 kts 232°
2026-05-01 12:05 51.28246 6.75782 318 ft 160 kts 226°
2026-05-01 12:05 51.26915 6.72963 1651 ft 166 kts 227°
2026-05-01 12:05 51.26173 6.71380 2075 ft 190 kts 227°
2026-05-01 12:06 51.25323 6.69577 2527 ft 216 kts 228°
2026-05-01 12:06 51.24334 6.67629 3232 ft 228 kts 217°
2026-05-01 12:06 51.23013 6.66461 4488 ft 213 kts 193°
2026-05-01 12:06 51.21544 6.66365 5503 ft 215 kts 167°
2026-05-01 12:07 51.20203 6.67420 6458 ft 220 kts 140°
2026-05-01 12:07 51.19301 6.69414 7353 ft 230 kts 117°
2026-05-01 12:07 51.18645 6.71899 7899 ft 255 kts 114°
2026-05-01 12:07 51.17965 6.74598 8651 ft 267 kts 114°
2026-05-01 12:08 51.17275 6.77381 9621 ft 272 kts 114°
2026-05-01 12:08 51.16572 6.80208 10553 ft 278 kts 114°
2026-05-01 12:08 51.15826 6.83187 10971 ft 301 kts 114°
2026-05-01 12:08 51.15026 6.86363 11527 ft 315 kts 114°